Regional Weather Roundup
Issued by NWS

Home | Current Version | Previous Version | Text Only | Print | Product List | Glossary Off
Versions: 1 2 3 4 5 6 7 8 9 10 11 12 13 14 15 16 17 18 19 20 21 22 23 24 25 26 27 28 29 30 31 32 33 34 35 36 37 38 39 40 41 42 43 44 45 46 47 48 49 50

059
ASUS43 KIND 081009
RWRIN

WEATHER ROUNDUP FOR INDIANA
NATIONAL WEATHER SERVICE INDIANAPOLIS IN
500 AM EST MON FEB 08 2016

NOTE: "FAIR" INDICATES FEW OR NO CLOUDS BELOW 12,000 FEET WITH NO
SIGNIFICANT WEATHER AND/OR OBSTRUCTIONS TO VISIBILITY.

* - STATION DOES NOT REPORT WEATHER SUCH AS PRECIPITATION OR FOG.

+ - STATION NOT QUALITY CONTROLLED BY THE NATIONAL WEATHER SERVICE.
    USE DATA WITH CAUTION...ESPECIALLY DEWPOINT AND RELATIVE
    HUMIDITY OBSERVATIONS.

INZ001>003-010>013-019-020-081100-
NORTHWEST INDIANA

CITY           SKY/WX    TMP DP  RH WIND       PRES   REMARKS
LA PORTE +     PTCLDY    29  29 100 SW5       29.64F WCI  24
MICHIGAN CITY+ CLEAR     28  27  93 SW6       29.64F WCI  22
MONTICELLO +   CLOUDY    32  25  76 W5        29.66F WCI  27
RENSSELAER +   MOCLDY    32  28  86 SW6       29.66S WCI  26
VALPARAISO     CLEAR     28  24  85 CALM      29.64F

$$

LMZ046-743>745-081100-
SOUTHERN LAKE MICHIGAN

STATION/POSITION TIME  TEMP    WIND        PRES    WAVE
                       AIR SEA DIR/SP/G            HT
                 (UTC) (F)     (DEG/KT/KT) (MB)    (FT)
BURNS HARBOR     0900   34     220/  8/ 10 1004.7F
MICHIGAN CITY    0900   32     180/  9/ 10   N/A

$$

INZ004-005-014>016-021>024-081100-
NORTH CENTRAL INDIANA

CITY           SKY/WX    TMP DP  RH WIND       PRES   REMARKS
GOSHEN         CLEAR     31  26  82 SW5       29.63F WCI  26
LOGANSPORT +   CLEAR     30  25  80 SW7       29.67F WCI  23
PERU/GRISSOM   PTCLDY    28  26  91 SW6       29.64S WCI  22
ROCHESTER +    PTCLDY    32  28  86 CALM      29.65F
SOUTH BEND     CLEAR     26  24  92 W5        29.64F WCI  20
WARSAW +       CLEAR     28  27  93 CALM      29.64F

$$

INZ006>009-017-018-025>027-081100-
NORTHEAST INDIANA

CITY           SKY/WX    TMP DP  RH WIND       PRES   REMARKS
ANGOLA *+      CLEAR     27  27 100 CALM      29.62F
AUBURN +       PTCLDY    32  30  93 CALM      29.65S
FORT WAYNE     CLOUDY    31  29  92 SW7       29.65F WCI  24
HUNTINGTON +   PTCLDY    29  26  88 S3        29.65F

$$

INZ028-029-035-036-043>045-051>053-081100-
WEST CENTRAL INDIANA

CITY           SKY/WX    TMP DP  RH WIND       PRES   REMARKS
GREENCASTLE +  CLOUDY    32  28  86 CALM      29.69F
LAFAYETTE      CLOUDY    32  27  81 W3        29.67F
TERRE HAUTE    MOCLDY    33  32  96 W3        29.72F

$$

INZ030>032-037>040-046>048-054>057-064-065-081100-
CENTRAL INDIANA

CITY           SKY/WX    TMP DP  RH WIND       PRES   REMARKS
FISHERS *+     CLOUDY    36  32  87 W7        29.68
FRANKFORT +    MOCLDY    33  26  75 S3        29.69S
GREENWOOD *+   CLOUDY    36  36 100 W13G20    29.71S
INDIANAPOLIS   FLURRIES  34  31  88 W9        29.69S WCI  27
-EAGLE CREEK   FLURRIES  35  32  88 W8        29.69S WCI  29
KOKOMO *+        N/A     34  28  80 SW7       29.67S WCI  28
MARION +       CLOUDY    30  24  78 SW6       29.67F WCI  24
MT COMFORT *+  CLOUDY    37  30  75 W8        29.69S
SHELBYVILLE    LGT RAIN  38  32  79 W12       29.69S
ZIONSVILLE +   CLOUDY    34  31  90 W7        29.68F WCI  28

$$

INZ033-034-041-042-049-050-058-059-081100-
EAST CENTRAL INDIANA

CITY           SKY/WX    TMP DP  RH WIND       PRES   REMARKS
MUNCIE         MOCLDY    36  30  79 SW6       29.67S

$$

INZ060-061-067>069-081>083-085>088-081100-
SOUTHWEST INDIANA

CITY           SKY/WX    TMP DP  RH WIND       PRES   REMARKS
EVANSVILLE     CLOUDY    38  33  82 W8        29.77S
HUNTINGBURG *+ CLOUDY    34  30  86 S7        29.74F WCI  28
WASHINGTON +   MOCLDY    33  32  96 W3        29.73F

$$

INZ062-063-066-070>080-084-089>092-081100-
SOUTH CENTRAL AND SOUTHEAST INDIANA

CITY           SKY/WX    TMP DP  RH WIND       PRES   REMARKS
BEDFORD +      CLOUDY    36  36 100 CALM      29.71F
BLOOMINGTON    CLOUDY    35  33  92 W3        29.70F
MADISON *+     CLOUDY    39  32  75 W13       29.72F
NORTH VERNON + DRIZZLE   39  32  75 W13       29.71S
SEYMOUR +      RAIN      37  34  87 MISG      29.71F

$$





USA.gov is the U.S. government's official web portal to all federal, state and local government web resources and services.